Monroe, WI

7:08 PM CST on February 07, 2016 (GMT -0600)
Monroe Municipal

Weather History for KEFT - August, 2014

Change the Weather History Date:

Monday, August 11, 2014

  Actual Average (KJVL) Record (KJVL)
Temperature  
Mean Temperature 71 °F -  
Max Temperature 80 °F 76 °F - (-1)
Min Temperature 62 °F 56 °F - (-1)
Cooling Degree Days 6    
Growing Degree Days 21 (Base 50)    
Moisture  
Dew Point 61 °F    
Average Humidity 72    
Maximum Humidity 94    
Minimum Humidity 51    
Precipitation  
Precipitation 0.00 in - - ()
Sea Level Pressure  
Sea Level Pressure 29.91 in    
Wind  
Wind Speed 6 mph (WNW)    
Max Wind Speed 21 mph    
Max Gust Speed 29 mph    
Visibility 10 miles    
Events Rain    
Averages and records for this station are not official NWS values.
T = Trace of Precipitation, MM = Missing Value Source: NWS Daily Summary

Daily Weather History Graph

Daily Weather History Graph

Search for Another Location

Airport or City:

Trip Planner

Search our weather history database for the weather conditions in past years. The results will help you decide how hot, cold, wet, or windy it might be!

Date:

Astronomy

Aug. 11, 2014 Rise Set
Actual Time 6:00 AM CDT 8:05 PM CDT
Civil Twilight 5:29 AM CDT 8:36 PM CDT
Nautical Twilight 4:51 AM CDT 9:14 PM CDT
Astronomical Twilight 4:10 AM CDT 9:55 PM CDT
Moon 8:30 PM CDT (8/11) 7:08 AM CDT (8/11)
Length of Visible Light 15h 06m
Length of Day
14h 04m
Full, 99% of the Moon is Illuminated
Aug 11
Full
Aug 17
Last Quarter
Aug 25
New
Sep 2
First Quarter
Sep 8
Full

Hourly Weather History & Observations

Time (CDT) Temp. Heat Index Dew Point Humidity Pressure Visibility Wind Dir Wind Speed Gust Speed Precip Events Conditions
12:15 AM 68.0 °F - 60.8 °F 78% 30.00 in 10.0 mi ENE 3.5 mph - N/A   Clear
12:35 AM 68.0 °F - 60.8 °F 78% 30.00 in 10.0 mi ENE 3.5 mph - N/A   Clear
12:55 AM 68.0 °F - 60.8 °F 78% 29.99 in 10.0 mi East 3.5 mph - N/A   Clear
1:15 AM 68.0 °F - 60.8 °F 78% 29.98 in 10.0 mi ENE 4.6 mph - N/A   Clear
1:35 AM 68.0 °F - 60.8 °F 78% 29.97 in 10.0 mi East 3.5 mph - N/A   Clear
1:55 AM 68.0 °F - 60.8 °F 78% 29.97 in 10.0 mi Calm Calm - N/A   Clear
2:15 AM 66.2 °F - 60.8 °F 83% 29.96 in 10.0 mi NE 4.6 mph - N/A   Clear
2:35 AM 66.2 °F - 60.8 °F 83% 29.96 in 10.0 mi NNE 3.5 mph - N/A   Clear
3:15 AM 64.4 °F - 60.8 °F 88% 29.95 in 10.0 mi NNE 3.5 mph - N/A   Clear
3:35 AM 64.4 °F - 60.8 °F 88% 29.95 in 10.0 mi ENE 3.5 mph - N/A   Clear
3:55 AM 64.4 °F - 60.8 °F 88% 29.95 in 10.0 mi NE 5.8 mph - N/A   Clear
4:15 AM 64.4 °F - 60.8 °F 88% 29.95 in 10.0 mi NE 4.6 mph - N/A   Clear
4:35 AM 62.6 °F - 60.8 °F 94% 29.95 in 10.0 mi NNE 4.6 mph - N/A   Clear
4:55 AM 64.4 °F - 60.8 °F 88% 29.95 in 10.0 mi NNE 3.5 mph - N/A   Clear
5:15 AM 64.4 °F - 60.8 °F 88% 29.95 in 10.0 mi North 3.5 mph - N/A   Clear
5:35 AM 64.4 °F - 59.0 °F 83% 29.95 in 10.0 mi Calm Calm - N/A   Mostly Cloudy
5:55 AM 64.4 °F - 59.0 °F 83% 29.95 in 10.0 mi Calm Calm - N/A   Mostly Cloudy
6:15 AM 64.4 °F - 59.0 °F 83% 29.95 in 10.0 mi Calm Calm - N/A   Scattered Clouds
6:30 AM 64.4 °F - 59.0 °F 83% 29.95 in 10.0 mi Calm Calm - N/A   Mostly Cloudy
6:55 AM 64.4 °F - 59.0 °F 83% 29.94 in 10.0 mi Calm Calm - N/A   Mostly Cloudy
7:15 AM 64.4 °F - 59.0 °F 83% 29.94 in 10.0 mi Calm Calm - N/A   Scattered Clouds
7:35 AM 64.4 °F - 59.0 °F 83% 29.94 in 10.0 mi Calm Calm - N/A   Clear
7:55 AM 68.0 °F - 60.8 °F 78% 29.94 in 10.0 mi Calm Calm - N/A   Clear
8:15 AM 69.8 °F - 62.6 °F 78% 29.94 in 10.0 mi WNW 5.8 mph - N/A   Clear
8:35 AM 69.8 °F - 60.8 °F 73% 29.93 in 10.0 mi Calm Calm - N/A   Clear
8:55 AM 71.6 °F - 60.8 °F 69% 29.93 in 10.0 mi West 3.5 mph - N/A   Clear
9:15 AM 73.4 °F - 59.0 °F 61% 29.92 in 10.0 mi West 4.6 mph - N/A   Clear
9:35 AM 73.4 °F - 59.0 °F 61% 29.92 in 10.0 mi West 3.5 mph - N/A   Clear
9:55 AM 73.4 °F - 59.0 °F 61% 29.92 in 10.0 mi West 3.5 mph - N/A   Clear
10:10 AM 75.2 °F - 59.0 °F 57% 29.91 in 10.0 mi West 4.6 mph - N/A   Clear
10:35 AM 75.2 °F - 60.8 °F 61% 29.91 in 10.0 mi West 5.8 mph - N/A   Clear
10:55 AM 77.0 °F - 60.8 °F 57% 29.91 in 10.0 mi WNW 3.5 mph - N/A   Clear
11:15 AM 77.0 °F - 60.8 °F 57% 29.90 in 10.0 mi WSW 6.9 mph - N/A   Clear
11:35 AM 78.8 °F - 60.8 °F 54% 29.90 in 10.0 mi West 6.9 mph - N/A   Clear
11:55 AM 78.8 °F - 62.6 °F 57% 29.89 in 10.0 mi WSW 8.1 mph - N/A   Scattered Clouds
12:15 PM 78.8 °F - 62.6 °F 57% 29.89 in 7.0 mi West 5.8 mph - N/A   Scattered Clouds
12:35 PM 80.6 °F 81.8 °F 62.6 °F 54% 29.89 in 10.0 mi West 8.1 mph - N/A   Scattered Clouds
12:55 PM 78.8 °F - 59.0 °F 51% 29.89 in 10.0 mi West 6.9 mph - N/A   Mostly Cloudy
1:15 PM 78.8 °F - 59.0 °F 51% 29.89 in 10.0 mi West 4.6 mph - N/A   Mostly Cloudy
1:35 PM 78.8 °F - 62.6 °F 57% 29.89 in 10.0 mi West 5.8 mph - N/A   Overcast
1:55 PM 78.8 °F - 62.6 °F 57% 29.88 in 10.0 mi West 8.1 mph - N/A   Overcast
2:15 PM 78.8 °F - 62.6 °F 57% 29.87 in 10.0 mi West 6.9 mph - N/A   Scattered Clouds
2:35 PM 78.8 °F - 64.4 °F 61% 29.86 in 10.0 mi West 13.8 mph - N/A   Scattered Clouds
2:55 PM 78.8 °F - 64.4 °F 61% 29.86 in 10.0 mi West 12.7 mph 16.1 mph N/A   Mostly Cloudy
3:15 PM 80.6 °F 81.8 °F 62.6 °F 54% 29.85 in 10.0 mi West 13.8 mph 17.3 mph N/A   Scattered Clouds
3:35 PM 80.6 °F 82.3 °F 64.4 °F 58% 29.84 in 10.0 mi West 18.4 mph 23.0 mph N/A   Scattered Clouds
3:55 PM 80.6 °F 82.3 °F 64.4 °F 58% 29.84 in 10.0 mi West 17.3 mph 23.0 mph N/A   Scattered Clouds
4:15 PM 77.0 °F - 64.4 °F 65% 29.84 in 10.0 mi WNW 15.0 mph 25.3 mph N/A   Mostly Cloudy
4:55 PM 77.0 °F - 62.6 °F 61% 29.83 in 10.0 mi West 19.6 mph 25.3 mph N/A   Scattered Clouds
5:15 PM 77.0 °F - 62.6 °F 61% 29.83 in 10.0 mi West 16.1 mph 25.3 mph N/A   Scattered Clouds
5:35 PM 75.2 °F - 64.4 °F 69% 29.83 in 10.0 mi WNW 13.8 mph 24.2 mph N/A   Mostly Cloudy
5:55 PM 73.4 °F - 62.6 °F 69% 29.84 in 10.0 mi West 20.7 mph 28.8 mph N/A   Mostly Cloudy
6:15 PM 69.8 °F - 62.6 °F 78% 29.83 in 10.0 mi WNW 18.4 mph 23.0 mph N/A   Mostly Cloudy
6:35 PM 69.8 °F - 60.8 °F 73% 29.84 in 10.0 mi WNW 15.0 mph 21.9 mph N/A   Overcast
7:15 PM 68.0 °F - 62.6 °F 83% 29.84 in 10.0 mi WNW 15.0 mph - N/A   Overcast
7:35 PM 68.0 °F - 60.8 °F 78% 29.84 in 10.0 mi NW 16.1 mph 21.9 mph N/A   Overcast
7:55 PM 64.4 °F - 60.8 °F 88% 29.85 in 10.0 mi NW 15.0 mph 26.5 mph N/A   Overcast
8:15 PM 62.6 °F - 60.8 °F 94% 29.85 in 3.0 mi NW 13.8 mph 21.9 mph N/A Rain Heavy Rain
8:35 PM 62.6 °F - 60.8 °F 94% 29.85 in 7.0 mi NW 15.0 mph 21.9 mph N/A   Light Drizzle
8:55 PM 62.6 °F - 60.8 °F 94% 29.86 in 10.0 mi NW 12.7 mph 21.9 mph N/A   Overcast